datetime,unregulated inflow volume
1990-09-20,1210.08529
1990-09-21,880.31187
1990-09-22,691.02216
1990-09-23,858.03128
1990-09-24,536.636394
1990-09-25,897.749758
1990-09-26,760.741086
1990-09-27,814.982154
1990-09-28,1701.60429
1990-09-29,1383.28491
1990-09-30,1399.45923
1990-10-01,1140.49674
1990-10-02,866.302302
1990-10-03,1337.51596
1990-10-04,1215.99949
1990-10-05,687.528304
1990-10-06,1462.72398
1990-10-07,1196.67203
1990-10-08,1647.54186
1990-10-09,1203.09948
1990-10-10,1680.00784
1990-10-11,1194.57497
1990-10-12,1285.52654
1990-10-13,1357.55419
1990-10-14,1048.97935
1990-10-15,1563.72093
1990-10-16,1056.92807
1990-10-17,973.81878
1990-10-18,1071.95201
1990-10-19,1600.23349
1990-10-20,1628.72251
1990-10-21,1589.98588
1990-10-22,1665.775
1990-10-23,1023.93451
1990-10-24,1287.08319
1990-10-25,1215.33997
1990-10-26,1767.39481
1990-10-27,1160.90859
1990-10-28,1366.3759
1990-10-29,1295.29972
1990-10-30,1210.70421
1990-10-31,1278.05808
1990-11-01,1310.71245
1990-11-02,1760.89228
1990-11-03,1471.31619
1990-11-04,1427.93246
1990-11-05,1404.92193
1990-11-06,1543.17906
1990-11-07,1367.68372
1990-11-08,1249.79654
1990-11-09,1043.6632
1990-11-10,1139.41712
1990-11-11,1220.27712
1990-11-12,1375.02204
1990-11-13,1322.04495
1990-11-14,1395.06002
1990-11-15,810.498
1990-11-16,1221.7846
1990-11-17,1136.7912
1990-11-18,1203.43238
1990-11-19,1627.77303
1990-11-20,1099.34541
1990-11-21,1223.57058
1990-11-22,1127.28736
1990-11-23,1042.93264
1990-11-24,818.916524
1990-11-25,813.60088
1990-11-26,1781.82364
1990-11-27,1174.72915
1990-11-28,900.070432
1990-11-29,766.577438
1990-11-30,730.699418
1990-12-01,1350.43888
1990-12-02,767.966282
1990-12-03,530.587742
1990-12-04,849.880348
1990-12-05,435.269434
1990-12-06,838.986658
1990-12-07,575.362432
1990-12-08,1025.56498
1990-12-09,575.79736
1990-12-10,897.636162
1990-12-11,885.058144
1990-12-12,1178.67365
1990-12-13,1152.24611
1990-12-14,777.101024
1990-12-15,713.138112
1990-12-16,702.058946
1990-12-17,670.136652
1990-12-18,788.162952
1990-12-19,817.13626
1990-12-20,874.448416
1990-12-21,191.543874
1990-12-22,1123.96911
1990-12-23,34.336032
1990-12-24,544.822506
1990-12-25,251.695646
1990-12-26,526.050576
1990-12-27,465.687722
1990-12-28,1645.17158
1990-12-29,1742.51419
1990-12-30,457.385894
1990-12-31,517.527884
1991-01-01,596.908532
1991-01-02,547.468334
1991-01-03,496.127412
1991-01-04,1104.27134
1991-01-05,984.780414
1991-01-06,1225.37019
1991-01-07,706.293944
1991-01-08,702.914252
1991-01-09,609.409712
1991-01-10,689.85994
1991-01-11,944.287636
1991-01-12,573.852852
1991-01-13,924.489324
1991-01-14,940.14509
1991-01-15,441.6684
1991-01-16,974.476016
1991-01-17,335.21632
1991-01-18,461.647024
1991-01-19,-55.188066
1991-01-20,334.822226
1991-01-21,797.005918
1991-01-22,324.74448
1991-01-23,1200.20254
1991-01-24,756.39104
1991-01-25,221.494622
1991-01-26,1126.42051
1991-01-27,719.49259
1991-01-28,811.26927
1991-01-29,452.406804
1991-01-30,749.571128
1991-01-31,913.562844
1991-02-01,616.63457
1991-02-02,662.041958
1991-02-03,635.813604
1991-02-04,584.318932
1991-02-05,961.975844
1991-02-06,600.255684
1991-02-07,830.718282
1991-02-08,240.06212
1991-02-09,883.979206
1991-02-10,500.34307
1991-02-11,946.95581
1991-02-12,214.56265
1991-02-13,1128.85406
1991-02-14,496.92754
1991-02-15,1069.05834
1991-02-16,467.01068
1991-02-17,1054.84477
1991-02-18,514.412352
1991-02-19,791.904694
1991-02-20,802.74002
1991-02-21,936.805162
1991-02-22,666.452046
1991-02-23,707.238128
1991-02-24,787.638128
1991-02-25,596.367646
1991-02-26,633.008578
1991-02-27,410.859066
1991-02-28,1242.15382
1991-03-01,814.589896
1991-03-02,1203.89345
1991-03-03,817.28891
1991-03-04,1034.80345
1991-03-05,1546.54767
1991-03-06,1258.32071
1991-03-07,964.351278
1991-03-08,412.502656
1991-03-09,1143.86296
1991-03-10,657.126296
1991-03-11,1601.4495
1991-03-12,1173.95132
1991-03-13,944.858198
1991-03-14,813.545742
1991-03-15,868.249406
1991-03-16,573.011088
1991-03-17,1300.97694
1991-03-18,984.768692
1991-03-19,972.04795
1991-03-20,1303.47565
1991-03-21,1016.06568
1991-03-22,1430.22723
1991-03-23,736.914054
1991-03-24,1116.65083
1991-03-25,993.11937
1991-03-26,1449.60518
1991-03-27,1147.77786
1991-03-28,1246.07401
1991-03-29,1125.69829
1991-03-30,1378.47807
1991-03-31,1038.47247
1991-04-01,1111.70687
1991-04-02,1608.34686
1991-04-03,2064.24189
1991-04-04,2476.81799
1991-04-05,2822.00347
1991-04-06,3577.15505
1991-04-07,3485.40491
1991-04-08,3213.18624
1991-04-09,2426.94364
1991-04-10,2200.1486
1991-04-11,1786.16156
1991-04-12,2009.62635
1991-04-13,1479.42873
1991-04-14,1621.69184
1991-04-15,1000.95466
1991-04-16,1812.42371
1991-04-17,1820.2334
1991-04-18,2467.65142
1991-04-19,2774.62433
1991-04-20,2690.76732
1991-04-21,3297.49541
1991-04-22,2890.4343
1991-04-23,3120.12809
1991-04-24,2419.54803
1991-04-25,3090.58698
1991-04-26,3096.32534
1991-04-27,2434.46357
1991-04-28,2705.00884
1991-04-29,1741.04171
1991-04-30,2286.80177
1991-05-01,2103.6685
1991-05-02,1795.05147
1991-05-03,2312.64149
1991-05-04,2557.15775
1991-05-05,1514.90836
1991-05-06,2078.81524
1991-05-07,2703.57558
1991-05-08,1640.8955
1991-05-09,7038.06906
1991-05-10,6608.5429
1991-05-11,7506.63227
1991-05-12,7587.70843
1991-05-13,6760.72766
1991-05-14,7300.32802
1991-05-15,7454.29795
1991-05-16,6229.66816
1991-05-17,5310.68348
1991-05-18,6087.27548
1991-05-19,7039.48238
1991-05-20,8668.42876
1991-05-21,9805.85062
1991-05-22,8802.46371
1991-05-23,10386.2482
1991-05-24,8366.07106
1991-05-25,8509.13276
1991-05-26,7781.0495
1991-05-27,8804.2841
1991-05-28,9824.7765
1991-05-29,9091.65251
1991-05-30,9046.18334
1991-05-31,8197.7404
1991-06-01,8402.60019
1991-06-02,8166.91512
1991-06-03,7912.57748
1991-06-04,6314.77409
1991-06-05,6510.25704
1991-06-06,8092.92464
1991-06-07,8911.58102
1991-06-08,9538.74531
1991-06-09,10268.0725
1991-06-10,10186.454
1991-06-11,9529.5854
1991-06-12,10906.9442
1991-06-13,9084.86108
1991-06-14,8139.68014
1991-06-15,12588.5102
1991-06-16,10703.6211
1991-06-17,9641.18109
1991-06-18,9283.4333
1991-06-19,7992.32908
1991-06-20,7012.73701
1991-06-21,6708.18205
1991-06-22,6909.18205
1991-06-23,5983.92819
1991-06-24,5606.3184
1991-06-25,5427.03267
1991-06-26,5196.76017
1991-06-27,4530.72218
1991-06-28,4425.54824
1991-06-29,4691.11691
1991-06-30,4894.67874
1991-07-01,4232.73029
1991-07-02,4273.88402
1991-07-03,3615.91728
1991-07-04,3442.85297
1991-07-05,3537.89636
1991-07-06,3057.93047
1991-07-07,3165.91318
1991-07-08,3052.75028
1991-07-09,3440.83008
1991-07-10,3273.79359
1991-07-11,3710.77743
1991-07-12,3173.79133
1991-07-13,3226.13854
1991-07-14,2762.14399
1991-07-15,2927.25565
1991-07-16,2551.4269
1991-07-17,2446.88013
1991-07-18,2796.89725
1991-07-19,3302.89356
1991-07-20,2657.36936
1991-07-21,3117.1073
1991-07-22,3410.36144
1991-07-23,2765.66491
1991-07-24,3372.13893
1991-07-25,3151.35804
1991-07-26,3118.82685
1991-07-27,2761.45892
1991-07-28,2475.48936
1991-07-29,2896.92868
1991-07-30,2333.3374
1991-07-31,2216.1302
1991-08-01,2146.14295
1991-08-02,2097.651
1991-08-03,2578.47537
1991-08-04,2403.82512
1991-08-05,2450.92289
1991-08-06,2175.62463
1991-08-07,2259.82978
1991-08-08,85.641022
1991-08-09,2196.363
1991-08-10,2186.46609
1991-08-11,1866.62646
1991-08-12,1942.33213
1991-08-13,1692.87643
1991-08-14,1711.22059
1991-08-15,1907.31946
1991-08-16,1684.96948
1991-08-17,1482.95531
1991-08-18,1533.06337
1991-08-19,1607.65076
1991-08-20,1340.05609
1991-08-21,1232.99683
1991-08-22,1154.90533
1991-08-23,863.218316
1991-08-24,736.141274
1991-08-25,1559.16132
1991-08-26,1166.84439
1991-08-27,1203.09514
1991-08-28,1294.97668
1991-08-29,974.037881
1991-08-30,1113.21669
1991-08-31,630.316829
1991-09-01,1346.77733
1991-09-02,981.624238
1991-09-03,861.46019
1991-09-04,1081.38544
1991-09-05,189.64757
1991-09-06,685.26264
1991-09-07,1119.91121
1991-09-08,1327.64639
1991-09-09,1328.34545
1991-09-10,1317.00446
1991-09-11,1348.57047
1991-09-12,1283.57845
1991-09-13,988.88992
1991-09-14,1363.43803
1991-09-15,1678.14446
1991-09-16,1424.98044
1991-09-17,715.78624
1991-09-18,1101.5036
1991-09-19,1025.35417
1991-09-20,1153.77403
1991-09-21,1329.57302
1991-09-22,838.42642
1991-09-23,936.26463
1991-09-24,762.862302
1991-09-25,778.18366
1991-09-26,1015.17398
1991-09-27,474.52476
1991-09-28,253.079438
1991-09-29,484.452002
1991-09-30,281.07378
1991-10-01,643.947456
1991-10-02,516.116704
1991-10-03,462.49289
1991-10-04,126.512792
1991-10-05,281.114462
1991-10-06,415.932704
1991-10-07,29.780306
1991-10-08,431.58262
1991-10-09,936.17214
1991-10-10,476.99517
1991-10-11,613.158464
1991-10-12,1071.79071
1991-10-13,739.911246
1991-10-14,317.097456
1991-10-15,479.818662
1991-10-16,159.19741
1991-10-17,593.41205
1991-10-18,937.04872
1991-10-19,770.60726
1991-10-20,581.489132
1991-10-21,734.709022
1991-10-22,614.190696
1991-10-23,607.727066
1991-10-24,1200.31499
1991-10-25,927.853344
1991-10-26,979.452172
1991-10-27,795.069382
1991-10-28,676.928776
1991-10-29,906.259624
1991-10-30,598.28649
1991-10-31,855.86571
1991-11-01,613.76779
1991-11-02,1273.0974
1991-11-03,237.007084
1991-11-04,1277.91285
1991-11-05,926.12215
1991-11-06,1051.2131
1991-11-07,984.754692
1991-11-08,1253.92122
1991-11-09,1206.29387
1991-11-10,1177.6871
1991-11-11,1308.81164
1991-11-12,1017.68963
1991-11-13,1154.23656
1991-11-14,973.91251
1991-11-15,1333.13894
1991-11-16,803.57715
1991-11-17,1187.85553
1991-11-18,1110.49764
1991-11-19,651.12938
1991-11-20,884.95759
1991-11-21,795.442346
1991-11-22,1209.36918
1991-11-23,786.08552
1991-11-24,577.461296
1991-11-25,1149.10364
1991-11-26,964.99686
1991-11-27,1222.0291
1991-11-28,959.448592
1991-11-29,1077.63533
1991-11-30,857.14177
1991-12-01,812.86063
1991-12-02,698.387642
1991-12-03,567.938796
1991-12-04,773.864492
1991-12-05,599.989614
1991-12-06,627.553226
1991-12-07,477.260984
1991-12-08,740.709276
1991-12-09,996.969146
1991-12-10,626.914702
1991-12-11,814.481978
1991-12-12,1111.24486
1991-12-13,821.664206
1991-12-14,667.208856
1991-12-15,641.439306
1991-12-16,598.27914
1991-12-17,594.262054
1991-12-18,615.7569
1991-12-19,853.458592
1991-12-20,773.798426
1991-12-21,581.568954
1991-12-22,406.940728
1991-12-23,728.48364
1991-12-24,414.383026
1991-12-25,617.004092
1991-12-26,505.752094
1991-12-27,553.036556
1991-12-28,584.15893
1991-12-29,563.855117
1991-12-30,391.049852
1991-12-31,825.781923
1992-01-01,331.142439
1992-01-02,548.720684
1992-01-03,392.506095
1992-01-04,508.256278
1992-01-05,589.604866
1992-01-06,581.658652
1992-01-07,969.839208
1992-01-08,800.103257
1992-01-09,566.977426
1992-01-10,679.593959
1992-01-11,628.347532
1992-01-12,358.081358
1992-01-13,755.219776
1992-01-14,632.901967
1992-01-15,478.51872
1992-01-16,413.579842
1992-01-17,638.478246
1992-01-18,616.836678
1992-01-19,491.8985
1992-01-20,493.110566
1992-01-21,345.301158
1992-01-22,604.63906
1992-01-23,347.39641
1992-01-24,507.874058
1992-01-25,525.17436
1992-01-26,870.00436
1992-01-27,441.196436
1992-01-28,472.944025
1992-01-29,767.39851
1992-01-30,613.441682
1992-01-31,639.784323
1992-02-01,466.983245
1992-02-02,715.207284
1992-02-03,502.948161
1992-02-04,577.811604
1992-02-05,684.368246
1992-02-06,416.697938
1992-02-07,584.510276
1992-02-08,651.992646
1992-02-09,648.152125
1992-02-10,966.7566
1992-02-11,756.05317
1992-02-12,830.30305
1992-02-13,575.48284
1992-02-14,822.74325
1992-02-15,707.42316
1992-02-16,710.61892
1992-02-17,614.257934
1992-02-18,542.494161
1992-02-19,649.739603
1992-02-20,790.622151
1992-02-21,957.06757
1992-02-22,704.215388
1992-02-23,346.925366
1992-02-24,1056.25982
1992-02-25,738.890562
1992-02-26,844.996103
1992-02-27,869.316138
1992-02-28,737.302698
1992-02-29,616.355918
1992-03-01,818.43738
1992-03-02,746.870095
1992-03-03,753.20393
1992-03-04,1157.3996
1992-03-05,1211.22466
1992-03-06,793.985584
1992-03-07,889.808974
1992-03-08,1076.6794
1992-03-09,873.8859
1992-03-10,525.459778
1992-03-11,562.303831
1992-03-12,1388.22883
1992-03-13,872.89093
1992-03-14,964.041812
1992-03-15,969.929166
1992-03-16,528.650544
1992-03-17,1003.11334
1992-03-18,999.390303
1992-03-19,740.39688
1992-03-20,649.22501
1992-03-21,1259.27955
1992-03-22,642.452781
1992-03-23,961.532106
1992-03-24,839.79109
1992-03-25,713.704941
1992-03-26,952.980576
1992-03-27,1770.91727
1992-03-28,345.204832
1992-03-29,1628.67551
1992-03-30,1145.55145
1992-03-31,845.576955
1992-04-01,1272.30704
1992-04-02,1025.82451
1992-04-03,1136.77909
1992-04-04,1321.13996
1992-04-05,1927.75279
1992-04-06,1126.47344
1992-04-07,1804.53896
1992-04-08,2348.55422
1992-04-09,2062.50441
1992-04-10,1683.73936
1992-04-11,2697.95044
1992-04-12,2526.61449
1992-04-13,2312.73756
1992-04-14,1894.70961
1992-04-15,4880.51833
1992-04-16,2849.91748
1992-04-17,1295.43736
1992-04-18,4457.22736
1992-04-19,2930.03568
1992-04-20,2187.30848
1992-04-21,1198.30576
1992-04-22,2918.7908
1992-04-23,1330.57577
1992-04-24,1959.71947
1992-04-25,2336.04817
1992-04-26,626.229046
1992-04-27,2645.6953
1992-04-28,2568.47733
1992-04-29,2621.46951
1992-04-30,4311.83313
1992-05-01,3922.52432
1992-05-02,4136.29697
1992-05-03,5569.83208
1992-05-04,3599.4873
1992-05-05,3648.78549
1992-05-06,4590.5353
1992-05-07,5132.17479
1992-05-08,2949.08914
1992-05-09,5370.7377
1992-05-10,6039.35118
1992-05-11,2630.04473
1992-05-12,5741.23287
1992-05-13,4402.74804
1992-05-14,3676.66303
1992-05-15,4527.20064
1992-05-16,3869.6239
1992-05-17,4318.32471
1992-05-18,5123.55648
1992-05-19,4205.75102
1992-05-20,4901.97718
1992-05-21,6153.18572
1992-05-22,4546.99344
1992-05-23,7322.51285
1992-05-24,6007.12679
1992-05-25,5097.78579
1992-05-26,6330.65569
1992-05-27,7562.40998
1992-05-28,5860.13397
1992-05-29,6930.6622
1992-05-30,6348.75756
1992-05-31,6179.24638
1992-06-01,5689.65326
1992-06-02,5458.66493
1992-06-03,5317.47744
1992-06-04,5309.88244
1992-06-05,6251.84117
1992-06-06,6560.0858
1992-06-07,5289.87131
1992-06-08,7437.92764
1992-06-09,5619.45431
1992-06-10,6757.39932
1992-06-11,5170.20304
1992-06-12,5854.92307
1992-06-13,7091.86703
1992-06-14,5860.87134
1992-06-15,4889.41686
1992-06-16,4268.90984
1992-06-17,5279.75744
1992-06-18,5857.33651
1992-06-19,4580.35854
1992-06-20,2880.71177
1992-06-21,5691.72943
1992-06-22,4560.73838
1992-06-23,4294.64796
1992-06-24,4140.41918
1992-06-25,4361.42019
1992-06-26,4334.03695
1992-06-27,4424.60238
1992-06-28,3820.6707
1992-06-29,3856.0177
1992-06-30,3692.44403
1992-07-01,4145.3011
1992-07-02,3858.68163
1992-07-03,3623.37522
1992-07-04,3461.86265
1992-07-05,3420.52049
1992-07-06,3064.20997
1992-07-07,2416.68174
1992-07-08,2610.75536
1992-07-09,2870.98128
1992-07-10,3105.99391
1992-07-11,2203.90053
1992-07-12,2731.21963
1992-07-13,2595.54729
1992-07-14,2809.76727
1992-07-15,2346.31097
1992-07-16,2987.37545
1992-07-17,2655.10986
1992-07-18,2084.84187
1992-07-19,1653.59559
1992-07-20,2684.02567
1992-07-21,2323.22338
1992-07-22,1575.93686
1992-07-23,2927.30868
1992-07-24,2314.2586
1992-07-25,2545.84715
1992-07-26,3670.98293
1992-07-27,2705.54543
1992-07-28,2598.5922
1992-07-29,2344.97322
1992-07-30,3346.72992
1992-07-31,3625.71339
1992-08-01,2878.72661
1992-08-02,2531.58519
1992-08-03,1998.57347
1992-08-04,1733.91069
1992-08-05,1950.25213
1992-08-06,1738.34687
1992-08-07,1899.3102
1992-08-08,1360.20768
1992-08-09,1903.59787
1992-08-10,1226.80739
1992-08-11,1837.98774
1992-08-12,2554.12462
1992-08-13,2755.65304
1992-08-14,1618.33127
1992-08-15,1672.71655
1992-08-16,1257.47977
1992-08-17,1810.98586
1992-08-18,1842.5466
1992-08-19,1794.46289
1992-08-20,1120.13893
1992-08-21,1798.55082
1992-08-22,1765.78949
1992-08-23,1775.2009
1992-08-24,1595.90733
1992-08-25,692.909054
1992-08-26,1242.78072
1992-08-27,1196.74715
1992-08-28,1213.14708
1992-08-29,1723.28206
1992-08-30,1412.56718
1992-08-31,1609.13598
1992-09-01,3029.25614
1992-09-02,961.997846
1992-09-03,1147.11366
1992-09-04,1001.4582
1992-09-05,732.94564
1992-09-06,2052.54391
1992-09-07,1415.49739
1992-09-08,1427.64751
1992-09-09,1497.49278
1992-09-10,1108.32814
1992-09-11,1355.08574
1992-09-12,1548.12548
1992-09-13,1310.09435
1992-09-14,202.369736
1992-09-15,536.172106
1992-09-16,1613.28046
1992-09-17,1624.38704
1992-09-18,813.906762
1992-09-19,1175.55198
1992-09-20,1274.22318
1992-09-21,1303.31284
1992-09-22,969.20512
1992-09-23,997.796554
1992-09-24,1154.24411
1992-09-25,916.602558
1992-09-26,614.99945
1992-09-27,673.55729
1992-09-28,841.21891
1992-09-29,392.94481
1992-09-30,119.85973
1992-10-01,999.821116
1992-10-02,480.8833
1992-10-03,758.525496
1992-10-04,754.530236
1992-10-05,1155.29371
1992-10-06,1088.27192
1992-10-07,1160.48005
1992-10-08,640.79835
1992-10-09,400.59525
1992-10-10,320.612618
1992-10-11,487.35561
1992-10-12,683.28545
1992-10-13,612.02796
1992-10-14,1264.71772
1992-10-15,727.695062
1992-10-16,685.648678
1992-10-17,1099.10994
1992-10-18,1006.41729
1992-10-19,491.27767
1992-10-20,951.463791
1992-10-21,989.856343
1992-10-22,999.356244
1992-10-23,1119.33897
1992-10-24,785.265134
1992-10-25,1092.72129
1992-10-26,1487.81467
1992-10-27,1311.18625
1992-10-28,1006.55629
1992-10-29,1175.73358
1992-10-30,740.56131
1992-10-31,849.823145
1992-11-01,1262.5462
1992-11-02,1002.81502
1992-11-03,787.55207
1992-11-04,739.684218
1992-11-05,429.751634
1992-11-06,292.069964
1992-11-07,926.687608
1992-11-08,1103.12406
1992-11-09,1007.6481
1992-11-10,657.62544
1992-11-11,740.612705
1992-11-12,1578.80773
1992-11-13,628.574719
1992-11-14,888.13308
1992-11-15,920.20749
1992-11-16,856.16472
1992-11-17,962.95591
1992-11-18,950.29603
1992-11-19,663.5593
1992-11-20,849.21807
1992-11-21,797.385109
1992-11-22,994.337968
1992-11-23,970.337527
1992-11-24,760.244365
1992-11-25,680.844142
1992-11-26,648.977532
1992-11-27,415.882516
1992-11-28,451.95428
1992-11-29,795.754721
1992-11-30,914.607457
1992-12-01,621.997367
1992-12-02,299.37208
1992-12-03,925.20747
1992-12-04,977.828094
1992-12-05,637.208174
1992-12-06,418.156816
1992-12-07,938.912188
1992-12-08,860.523506
1992-12-09,807.063858
1992-12-10,947.211282
1992-12-11,402.231282
1992-12-12,752.977026
1992-12-13,1120.3235
1992-12-14,869.999782
1992-12-15,917.279524
1992-12-16,468.372018
1992-12-17,878.583948
1992-12-18,617.290586
1992-12-19,561.459442
1992-12-20,456.432216
1992-12-21,576.3456
1992-12-22,563.365658
1992-12-23,262.14524
1992-12-24,396.17843
1992-12-25,364.546244
1992-12-26,612.487676
1992-12-27,677.56706
1992-12-28,1042.58305
1992-12-29,931.305322
1992-12-30,1298.68471
1992-12-31,971.570684
1993-01-01,759.768466
1993-01-02,218.972292
1993-01-03,824.575274
1993-01-04,1054.81474
1993-01-05,662.687755
1993-01-06,905.654112
1993-01-07,199.448902
1993-01-08,1047.65046
1993-01-09,751.330354
1993-01-10,1027.75213
1993-01-11,552.686303
1993-01-12,1239.49762
1993-01-13,825.990091
1993-01-14,1130.0207
1993-01-15,581.435737
1993-01-16,500.30423
1993-01-17,1464.38392
1993-01-18,993.366766
1993-01-19,600.603018
1993-01-20,566.209468
1993-01-21,966.906296
1993-01-22,1702.68251
1993-01-23,1079.95772
1993-01-24,346.205984
1993-01-25,934.194416
1993-01-26,447.954808
1993-01-27,676.454416
1993-01-28,790.996902
1993-01-29,1441.21321
1993-01-30,741.989657
1993-01-31,473.507263
1993-02-01,1289.08746
1993-02-02,892.36712
1993-02-03,693.039965
1993-02-04,725.683592
1993-02-05,667.519434
1993-02-06,1293.45029
1993-02-07,533.722269
1993-02-08,1171.3018
1993-02-09,885.722548
1993-02-10,907.01247
1993-02-11,934.40444
1993-02-12,884.59258
1993-02-13,740.03285
1993-02-14,801.45826
1993-02-15,783.65952
1993-02-16,1116.32354
1993-02-17,762.817981
1993-02-18,831.787773
1993-02-19,819.095301
1993-02-20,1162.88099
1993-02-21,1296.66451
1993-02-22,793.50238
1993-02-23,627.36303
1993-02-24,1130.41662
1993-02-25,505.633118
1993-02-26,1096.95297
1993-02-27,1077.67335
1993-02-28,903.118402
1993-03-01,1090.93266
1993-03-02,465.99288
1993-03-03,1042.25036
1993-03-04,689.317675
1993-03-05,660.1078
1993-03-06,648.86157
1993-03-07,783.648626
1993-03-08,802.800038
1993-03-09,842.28921
1993-03-10,891.792555
1993-03-11,841.240863
1993-03-12,807.184233
1993-03-13,637.484604
1993-03-14,901.021456
1993-03-15,836.415788
1993-03-16,974.834048
1993-03-17,837.428162
1993-03-18,828.31672
1993-03-19,1167.46073
1993-03-20,948.05269
1993-03-21,1081.16464
1993-03-22,1243.44856
1993-03-23,1238.15323
1993-03-24,1249.14389
1993-03-25,1473.72835
1993-03-26,1731.19984
1993-03-27,2194.9387
1993-03-28,2101.26835
1993-03-29,2210.18351
1993-03-30,1784.63107
1993-03-31,1777.61588
1993-04-01,1780.23563
1993-04-02,1735.42407
1993-04-03,1802.90097
1993-04-04,2021.12207
1993-04-05,2225.10826
1993-04-06,2090.34549
1993-04-07,1990.86083
1993-04-08,1763.3251
1993-04-09,1763.88753
1993-04-10,1978.42658
1993-04-11,2240.92522
1993-04-12,2054.80771
1993-04-13,1664.26079
1993-04-14,1939.77754
1993-04-15,1804.42192
1993-04-16,2233.16453
1993-04-17,2256.41617
1993-04-18,1888.63207
1993-04-19,2496.69648
1993-04-20,1964.74092
1993-04-21,1769.51666
1993-04-22,2960.69816
1993-04-23,3126.57576
1993-04-24,3304.42747
1993-04-25,3080.43939
1993-04-26,3284.56582
1993-04-27,4020.20872
1993-04-28,4785.13584
1993-04-29,5816.94196
1993-04-30,6007.0135
1993-05-01,5650.78743
1993-05-02,5694.36921
1993-05-03,5298.67638
1993-05-04,5663.49223
1993-05-05,6429.57697
1993-05-06,6235.89046
1993-05-07,5241.75876
1993-05-08,5167.52632
1993-05-09,4513.01771
1993-05-10,4211.33724
1993-05-11,5073.84741
1993-05-12,6177.83858
1993-05-13,8432.10678
1993-05-14,10387.1616
1993-05-15,12016.1785
1993-05-16,13066.0657
1993-05-17,14036.3165
1993-05-18,13971.8203
1993-05-19,13667.2036
1993-05-20,13390.4481
1993-05-21,14879.6326
1993-05-22,15512.5371
1993-05-23,14465.0006
1993-05-24,14097.0412
1993-05-25,14768.9559
1993-05-26,16881.6993
1993-05-27,17918.1745
1993-05-28,20585.3296
1993-05-29,17833.1187
1993-05-30,17386.8622
1993-05-31,17335.7177
1993-06-01,18363.7823
1993-06-02,17764.8698
1993-06-03,17279.7942
1993-06-04,14300.2574
1993-06-05,12299.5415
1993-06-06,12388.6714
1993-06-07,12065.4273
1993-06-08,11271.7448
1993-06-09,9799.81914
1993-06-10,8564.30219
1993-06-11,9506.32338
1993-06-12,9549.74124
1993-06-13,11785.8983
1993-06-14,13383.879
1993-06-15,15196.2168
1993-06-16,16320.6003
1993-06-17,17295.9588
1993-06-18,15443.7641
1993-06-19,13975.0896
1993-06-20,13831.8899
1993-06-21,13773.8515
1993-06-22,13442.5676
1993-06-23,14082.7014
1993-06-24,13412.6632
1993-06-25,12388.2974
1993-06-26,10958.6623
1993-06-27,11808.6318
1993-06-28,11350.6025
1993-06-29,10998.2661
1993-06-30,11094.8196
1993-07-01,10560.1749
1993-07-02,9651.55593
1993-07-03,9621.91616
1993-07-04,9981.93411
1993-07-05,8235.70533
1993-07-06,7029.82826
1993-07-07,6491.88279
1993-07-08,6410.16562
1993-07-09,5967.90149
1993-07-10,5696.28803
1993-07-11,6633.49131
1993-07-12,6257.26077
1993-07-13,6027.00738
1993-07-14,5805.77186
1993-07-15,5870.11973
1993-07-16,5191.26285
1993-07-17,4379.45233
1993-07-18,4575.47559
1993-07-19,4669.78656
1993-07-20,4103.40938
1993-07-21,3416.00324
1993-07-22,3526.98793
1993-07-23,3701.5981
1993-07-24,3414.00651
1993-07-25,3511.53357
1993-07-26,3011.22453
1993-07-27,2945.93424
1993-07-28,2677.51805
1993-07-29,2679.58266
1993-07-30,3099.27596
1993-07-31,2646.79914
1993-08-01,2530.93507
1993-08-02,2177.93594
1993-08-03,2404.23073
1993-08-04,2168.28208
1993-08-05,2497.41089
1993-08-06,2329.25813
1993-08-07,2058.72407
1993-08-08,2939.77343
1993-08-09,2823.92206
1993-08-10,2806.84753
1993-08-11,3059.34925
1993-08-12,2566.33044
1993-08-13,2339.47776
1993-08-14,2722.09487
1993-08-15,2508.66098
1993-08-16,2114.99421
1993-08-17,2110.3763
1993-08-18,2402.51804
1993-08-19,1790.91423
1993-08-20,2173.32347
1993-08-21,2605.99965
1993-08-22,2700.81836
1993-08-23,2381.04096
1993-08-24,2040.59902
1993-08-25,1937.55936
1993-08-26,2156.79627
1993-08-27,1998.54383
1993-08-28,1842.40322
1993-08-29,1902.28076
1993-08-30,1989.45103
1993-08-31,2368.76518
1993-09-01,2036.92577
1993-09-02,2245.53106
1993-09-03,1531.43453
1993-09-04,2078.09476
1993-09-05,1420.63115
1993-09-06,1642.50634
1993-09-07,1578.18454
1993-09-08,2207.5838
1993-09-09,1798.02158
1993-09-10,1546.12964
1993-09-11,1600.82227
1993-09-12,1347.82749
1993-09-13,1701.27092
1993-09-14,1804.80149
1993-09-15,1511.67966
1993-09-16,1514.68513
1993-09-17,1828.57679
1993-09-18,1327.68923
1993-09-19,1560.52532
1993-09-20,1565.29884
1993-09-21,1268.17454